Location: Unspecified
(0.0000°N, 0.0000°E)
Time: 07:56:42
(UTC+02:00)

ARIANE 5 R/B - Visible Passes

Search period start: 30 September 2014 00:00
Search period end: 10 October 2014 00:00
Orbit: 560 x 35569 km, 5.0° (Epoch: 29 September)

Date Brightness Start Highest point End Pass type
(mag) Time Alt. Az. Time Alt. Az. Time Alt. Az.
30 Sep 8.9 00:45:59 57° E 00:53:47 57° E 02:39:17 10° E visible
01 Oct 9.9 01:31:46 10° W 02:49:44 22° W 05:20:28 10° W visible
01 Oct 6.5 21:56:27 10° W 07:42:38 81° S 07:52:35 10° E visible
02 Oct 8.4 18:50:29 10° W 03:55:14 88° N 04:50:05 10° E visible
03 Oct 6.0 15:50:00 10° W 15:55:22 85° S 16:42:35 10° E visible
05 Oct 9.8 00:16:55 10° W 01:52:27 34° W 05:49:03 12° W visible
05 Oct 7.1 20:56:28 10° W 06:41:01 84° S 06:55:02 10° E visible
06 Oct 7.4 17:52:45 10° W 18:05:07 85° N 03:50:48 10° E visible
07 Oct 9.3 19:18:35 10° E 23:15:07 30° E 00:26:58 10° E visible
08 Oct 5.5 23:10:15 10° W 08:51:56 71° S 08:57:52 10° ESE visible
09 Oct 9.7 19:57:25 10° W 23:47:05 85° N 00:00:00 84° NNW visible
